Temp
5 5 4 4 4 4 4 4 4 3 3 3 3 3 3 3 2 2 2 1 1 2 1 -0 -0 -0 -0 0 -0 -0 0 0
5 5 5 5 5 5 4 4 4 3 3 3 3 3 3 2 2 2 2 1 2 2 1 1 1 1 0 -0 -0 -0 -0 -0
6 6 5 5 5 5 5 4 4 4 3 3 3 3 3 2 2 2 2 2 2 1 1 1 0 0 -0 -1 -1 -1 -1 -1
6 6 6 6 5 5 5 4 4 3 3 3 3 3 2 2 2 2 2 2 1 1 0 0 -0 -1 -1 -1 -2 -2 -2 -2
5 6 6 6 6 5 4 4 4 3 3 3 3 3 3 2 2 2 2 1 0 0 -0 -0 -1 -1 -2 -2 -3 -2 -3 -3
6 6 6 6 5 5 4 4 4 3 3 3 3 3 2 2 2 2 1 1 0 -0 -0 -1 -1 -2 -2 -2 -3 -2 -3 -4
6 6 6 5 5 5 4 4 3 3 3 3 3 2 2 2 1 1 1 0 0 -0 -1 -1 -2 -2 -2 -3 -4 -3 -4 -5
6 6 6 5 5 5 4 4 3 2 2 2 3 2 2 1 1 1 1 -0 -0 -1 -1 -2 -2 -3 -3 -4 -4 -4 -4 -6
6 6 6 5 5 5 4 4 3 3 4 3 2 2 2 2 1 0 -0 -1 -1 -2 -2 -3 -3 -3 -4 -4 -4 -4 -5 -7
6 6 6 5 4 4 4 3 3 3 3 3 2 2 1 1 -0 -1 -1 -2 -2 -2 -2 -3 -3 -4 -4 -5 -5 -6 -8 -8
6 5 5 4 4 3 3 3 3 2 3 2 2 2 1 -1 -1 -1 -1 -2 -2 -2 -3 -3 -4 -5 -5 -5 -6 -8 -9 -9
5 5 5 5 4 4 4 4 3 3 2 2 1 1 0 -1 -2 -2 -3 -3 -3 -3 -4 -4 -5 -6 -5 -6 -7 -8 -9 -10
6 6 6 5 5 4 4 3 3 2 2 1 1 0 -1 -1 -1 -2 -2 -3 -3 -3 -4 -5 -5 -5 -6 -6 -7 -8 -10 -11
6 5 4 4 3 3 3 2 2 1 1 1 0 -0 -0 -1 -1 -2 -2 -3 -3 -4 -4 -5 -5 -5 -7 -8 -9 -10 -11 -12
5 4 4 3 3 3 2 2 1 1 1 0 -0 -1 -1 -2 -2 -3 -3 -3 -4 -4 -5 -5 -5 -8 -8 -9 -10 -11 -11 -11
4 4 4 3 3 2 2 1 1 0 0 -0 -1 -1 -2 -3 -3 -3 -3 -4 -4 -4 -5 -7 -8 -8 -9 -10 -10 -10 -12 -12
4 4 3 3 2 2 1 1 0 0 -1 -1 -1 -3 -2 -3 -3 -4 -4 -4 -4 -7 -8 -8 -8 -9 -10 -11 -11 -11 -11 -12
4 3 3 2 2 2 1 1 -0 -1 -1 -1 -2 -3 -3 -3 -4 -4 -4 -6 -7 -7 -7 -8 -9 -10 -11 -11 -11 -11 -11 -12
3 2 1 1 1 1 0 -0 -1 -1 -2 -2 -3 -3 -3 -4 -4 -4 -7 -7 -7 -6 -8 -9 -9 -10 -11 -11 -11 -11 -11 -12
Height
3131 3132 3134 3135 3138 3140 3141 3142 3144 3146 3148 3150 3152 3153 3153 3154 3153 3153 3152 3153 3151 3150 3150 3149 3147 3146 3146 3144 3143 3140 3136 3134
3132 3133 3135 3135 3137 3139 3140 3142 3143 3144 3147 3148 3150 3150 3150 3150 3150 3150 3151 3151 3150 3148 3148 3147 3146 3145 3144 3142 3140 3137 3133 3130
3130 3132 3134 3136 3137 3138 3138 3140 3142 3144 3145 3145 3146 3146 3148 3148 3147 3148 3149 3148 3147 3147 3147 3146 3145 3142 3140 3138 3134 3131 3127 3123
3129 3131 3133 3134 3135 3137 3138 3139 3140 3142 3143 3143 3144 3144 3146 3146 3146 3145 3146 3146 3146 3146 3144 3143 3140 3138 3135 3132 3128 3125 3121 3118
3126 3128 3130 3132 3132 3133 3135 3137 3137 3138 3139 3139 3140 3141 3142 3144 3143 3143 3143 3143 3142 3141 3139 3138 3135 3131 3126 3123 3120 3116 3112 3108
3122 3124 3128 3129 3130 3132 3132 3132 3134 3135 3134 3135 3137 3138 3139 3139 3139 3138 3138 3138 3136 3135 3132 3129 3126 3122 3120 3117 3114 3109 3103 3099
3118 3121 3123 3124 3126 3126 3126 3128 3130 3131 3131 3132 3133 3133 3134 3134 3134 3134 3132 3131 3129 3127 3124 3121 3118 3114 3111 3109 3104 3098 3095 3090
3114 3116 3119 3120 3121 3122 3122 3124 3125 3126 3126 3125 3127 3128 3128 3129 3129 3127 3125 3123 3121 3118 3116 3113 3110 3105 3101 3098 3093 3088 3085 3080
3110 3112 3114 3115 3117 3117 3120 3121 3121 3121 3120 3119 3121 3122 3122 3122 3121 3119 3117 3115 3113 3110 3108 3105 3100 3097 3094 3089 3084 3081 3075 3070
3106 3109 3110 3112 3113 3114 3117 3118 3117 3117 3116 3116 3117 3117 3116 3116 3114 3112 3110 3108 3105 3097 3099 3096 3091 3088 3083 3079 3074 3069 3064 3061
3104 3106 3107 3109 3110 3111 3112 3112 3112 3112 3111 3110 3110 3110 3109 3108 3107 3106 3103 3100 3097 3097 3091 3087 3085 3079 3074 3069 3063 3060 3057 3052
3102 3104 3105 3106 3107 3107 3107 3107 3108 3107 3106 3105 3105 3104 3103 3101 3100 3098 3097 3096 3093 3089 3083 3080 3074 3070 3065 3061 3056 3051 3048 3043
3102 3103 3104 3104 3104 3105 3104 3103 3102 3101 3100 3100 3100 3099 3097 3095 3094 3092 3091 3089 3086 3081 3076 3073 3068 3062 3057 3052 3048 3044 3038 3033
3100 3101 3102 3102 3101 3100 3099 3098 3098 3096 3096 3095 3094 3093 3091 3090 3088 3086 3081 3079 3075 3071 3068 3063 3057 3051 3048 3045 3040 3034 3030 3026
3096 3097 3097 3097 3095 3095 3094 3093 3092 3091 3090 3088 3087 3085 3083 3082 3080 3076 3073 3071 3067 3064 3059 3052 3046 3045 3041 3035 3030 3027 3023 3018
3092 3092 3092 3092 3090 3088 3088 3086 3085 3085 3083 3083 3081 3079 3077 3075 3072 3069 3064 3060 3055 3051 3046 3045 3042 3036 3031 3026 3022 3018 3014 3010
3087 3088 3087 3086 3084 3083 3083 3081 3080 3079 3078 3077 3074 3071 3070 3068 3065 3060 3056 3049 3045 3043 3041 3037 3032 3027 3023 3019 3015 3011 3007 3002
3084 3083 3081 3080 3078 3077 3076 3075 3074 3073 3072 3069 3066 3064 3062 3059 3055 3049 3043 3039 3039 3037 3032 3026 3022 3019 3016 3013 3008 3003 2999 2994
3078 3076 3075 3074 3072 3072 3071 3070 3068 3067 3064 3061 3058 3056 3053 3048 3043 3039 3036 3036 3032 3028 3024 3020 3017 3014 3009 3005 3000 2995 2990 2985
Wind_Speed
13 12 10 11 10 10 10 9 8 10 9 6 4 7 6 9 11 14 17 21 19 20 19 16 17 19 22 27 30 32 34 37
12 14 13 12 12 11 9 7 4 4 3 5 7 7 9 11 14 17 19 20 19 21 21 21 23 26 30 32 33 35 37 38
12 11 12 11 11 9 8 6 6 6 7 9 11 12 13 15 17 18 19 20 20 22 23 24 27 30 33 34 37 39 44 41
6 7 6 9 10 9 9 9 10 11 11 14 16 17 17 16 16 18 21 22 22 23 24 26 27 28 31 31 36 38 41 42
14 9 7 6 4 7 13 13 15 16 17 18 18 20 18 15 19 22 22 19 21 23 26 27 29 30 34 35 37 38 38 40
16 14 12 10 9 9 10 13 16 19 20 21 21 20 17 18 18 20 20 21 23 25 27 29 32 35 40 44 46 45 41 40
20 20 18 18 16 16 15 15 14 19 23 28 21 19 17 18 18 19 22 25 28 30 33 35 37 42 44 41 50 52 41 41
23 23 21 21 18 17 15 15 17 22 26 24 18 17 15 18 19 22 26 30 34 36 37 43 42 44 46 47 55 55 52 43
25 25 22 22 21 18 16 17 19 22 22 19 19 21 19 21 25 27 27 31 35 40 40 34 44 41 46 51 49 51 47 38
18 19 19 19 20 19 18 20 22 24 24 23 21 22 24 27 27 29 35 37 38 47 49 40 40 52 47 49 50 45 40 39
18 15 13 15 18 22 24 23 23 25 26 25 23 24 28 27 28 32 35 39 36 41 45 51 49 49 50 55 48 39 39 43
11 11 10 13 16 17 18 21 22 20 17 18 20 21 22 26 28 29 32 34 43 44 41 47 51 53 56 54 48 46 46 45
1 2 5 8 9 12 15 13 14 16 17 18 21 23 25 30 33 32 36 37 43 42 43 47 51 53 54 53 47 44 43 42
6 8 12 13 15 16 19 16 18 20 21 23 25 25 26 26 29 33 36 43 45 41 44 50 54 54 46 40 46 42 38 33
13 14 17 19 22 24 24 25 26 25 26 30 28 27 31 29 29 33 33 42 46 48 54 57 55 41 43 45 40 34 32 32
16 16 17 20 24 26 27 28 25 27 31 32 29 32 31 32 34 43 37 47 47 53 55 41 35 41 36 31 31 32 34 36
18 17 18 21 24 25 27 26 25 29 31 30 32 31 31 34 42 44 48 53 54 37 36 41 38 29 28 27 30 34 36 38
15 17 18 19 18 17 17 19 19 24 28 31 32 33 36 40 44 47 54 46 37 40 42 28 25 26 26 30 34 36 37 37
16 16 16 17 17 18 17 19 23 26 28 31 33 34 37 41 46 49 40 37 44 35 28 25 26 28 31 33 35 37 38 38
Wind_Direction
148 155 160 154 153 152 150 148 142 160 167 174 214 231 272 276 280 283 287 292 298 305 306 301 301 304 301 303 305 303 305 307
157 160 174 175 171 166 168 181 173 190 234 271 274 279 296 291 276 273 278 286 294 303 304 303 301 299 300 299 296 299 297 304
178 179 184 194 190 190 190 200 223 243 266 276 281 286 281 277 272 275 278 286 293 293 291 290 291 294 296 293 289 296 301 298
209 204 222 227 227 224 228 238 245 257 264 270 278 277 277 280 287 284 278 276 274 277 278 283 292 290 294 297 294 301 295 294
247 250 259 283 307 274 262 261 266 266 265 274 284 283 276 276 263 263 270 271 271 274 279 284 285 285 287 295 293 295 298 295
260 273 285 295 272 288 276 274 264 263 265 271 278 274 263 264 269 277 272 270 276 279 279 280 283 288 292 287 290 298 298 292
261 267 272 271 276 286 289 286 275 266 275 270 269 264 251 264 267 272 269 269 275 278 281 283 286 284 283 290 305 297 296 295
261 266 268 274 289 289 286 285 272 276 286 270 276 245 257 262 270 271 269 271 274 278 282 282 282 302 285 308 311 299 301 290
257 261 266 277 287 288 290 281 271 282 290 282 268 245 263 270 268 272 279 283 286 283 283 317 286 299 310 304 297 304 295 297
273 252 265 272 279 281 282 271 276 282 285 286 266 263 268 277 281 291 274 295 290 274 309 287 295 315 296 300 293 301 297 290
269 256 268 274 275 276 279 278 277 278 280 278 270 281 280 288 290 285 286 307 293 298 308 299 309 307 303 303 302 295 290 292
233 241 257 265 269 275 279 277 275 276 283 277 275 284 292 297 297 299 298 290 305 293 307 308 308 306 304 302 296 293 303 299
152 306 289 295 287 290 303 291 283 282 279 275 278 291 294 296 303 302 301 303 302 299 305 303 299 297 301 298 305 304 298 289
256 266 273 284 290 292 281 286 290 294 285 293 295 298 301 298 298 307 287 301 296 288 288 286 290 288 294 308 305 299 293 298
247 256 267 273 280 281 282 283 280 280 291 289 294 301 298 293 292 303 304 299 300 293 294 294 287 305 310 307 307 307 304 303
254 265 273 275 279 282 282 282 282 290 288 288 294 297 294 294 298 287 284 296 294 296 294 301 309 306 309 309 302 303 306 305
263 266 273 274 278 277 276 280 282 281 281 288 294 293 289 289 286 289 291 295 286 294 307 307 308 308 299 301 304 304 306 306
265 279 284 285 291 283 276 281 285 280 282 290 293 287 287 288 289 289 280 278 295 304 307 307 298 294 300 304 303 303 305 304
291 296 294 291 290 289 284 290 293 289 288 292 294 295 295 294 293 275 272 292 309 308 299 295 298 300 300 301 303 304 306 304